Regional Weather Roundup
Issued by NWS

Home | Current Version | Previous Version | Graphics & Text | Print | Product List | Glossary On
Versions: 1 2 3 4 5 6 7 8 9 10 11 12 13 14 15 16 17 18 19 20 21 22 23 24 25 26 27 28 29 30 31 32 33 34 35 36 37 38 39 40 41 42 43 44 45 46 47 48 49 50
000
ASUS43 KLOT 211309
RWRIL

ILLINOIS REGIONAL WEATHER ROUNDUP
NATIONAL WEATHER SERVICE CHICAGO/ROMEOVILLE IL
800 AM CDT SAT OCT 21 2017

NOTE: "FAIR" INDICATES FEW OR NO CLOUDS BELOW 12,000 FEET WITH NO
SIGNIFICANT WEATHER AND/OR OBSTRUCTIONS TO VISIBILITY.

* THESE STATIONS ARE NOT UNDER NWS QUALITY CONTROL. THEY ALSO MAY NOT
  REPORT WEATHER SUCH AS PRECIPITATION OR FOG.

ILZ001-002-007-009-015-016-024-211400-
NORTHWEST ILLINOIS

CITY           SKY/WX    TMP DP  RH WIND       PRES   REMARKS
MOLINE         CLOUDY    64  51  62 S15G21    29.95S
STERLING*      CLOUDY    60  52  74 VRB5        N/A
SAVANNA*       PTCLDY    60  52  75 S8        29.96S
$$

ILZ003-004-008-010-011-017-018-211400-
NORTH CENTRAL ILLINOIS

CITY           SKY/WX    TMP DP  RH WIND       PRES   REMARKS
ROCKFORD       CLOUDY    59  50  72 S13       30.01F
FREEPORT*      CLOUDY    58  50  75 S13       29.99S
ROCHELLE*      CLOUDY    57  50  77 S6        30.02S
DE KALB*       CLOUDY    56  50  78 SE12      30.03F
PERU*          CLOUDY    61  50  67 S13       30.03S
$$

ILZ005-006-012>014-019>023-211400-
NORTHEAST ILLINOIS

CITY           SKY/WX    TMP DP  RH WIND       PRES   REMARKS
CHICAGO-OHARE  MOCLDY    62  49  62 S15       30.06R
CHICAGO-MIDWAY CLOUDY    62  49  62 S14       30.07S
AURORA         CLOUDY    59  51  75 SE12      30.04F
LANSING*       PTCLDY    56  50  79 S9        30.10S
JOLIET*        MOCLDY    61  51  70 SE8       30.07S
WAUKEGAN       CLOUDY    61  49  64 S10       30.03S
DUPAGE AIRPORT CLOUDY    59  51  75 S12       30.04F
KANKAKEE*      MOCLDY    55  49  79 E7        30.10S
WHEELING       CLOUDY    63  51  65 S12       30.06S
MORRIS*        MOCLDY    59  50  72 E7        30.05S
ROMEOVILLE*    CLOUDY    58  50  74 S10       30.07S
NORTHERLY ISL    N/A     63  47  55 S7          N/A
$$

LMZ740>746-211400-
SOUTHERN LAKE MICHIGAN

STATION/POSITION SKY/WX   TEMP    WIND        PRES    VSBY  WAVE
                          AIR SEA DIR/SP/G                  HT/PER
                          (F)     (DEG/KT/KT) (MB)    (MI)  (FT/S)
SOUTHERN BUOY              62 61  170/ 16/ 21 1017.7          3/ 5
WILMETTE HARBOR            63 60  180/ 14/ 17   N/A           2/ 3
HARRISON CRIB              63     180/ 17/ 18   N/A
BURNHAM HARBOR             63     180/  9/ 13   N/A
CALUMET HARBOR             61     170/  9/ 13 1018.0R
BURNS HARBOR               60     180/ 13/ 18 1019.6R
MICHIGAN CITY              61     160/ 13/ 16   N/A
MICHIGAN CITY 6N           59 58  180/ 12/ 16   N/A           1/ 2
ST. JOSEPH                 61 59  180/ 12/ 21 1020.1          2/ 3
$$

ILZ025>027-034>036-040-047-049-050-058-095>099-211400-
WEST-CENTRAL ILLINOIS

CITY           SKY/WX    TMP DP  RH WIND       PRES   REMARKS
QUINCY         MOCLDY    64  53  67 S12       29.97S
GALESBURG*     PTCLDY    64  60  85 SE8       29.99S
MACOMB*        MOCLDY    59  52  78 S9        30.01R
JACKSONVILLE*  MOCLDY    62  52  71 S8        30.02R
PITTSFIELD*    CLOUDY    60  54  80 SE8       30.01S
$$

ILZ028>032-037-038-041>044-048-051>054-059>061-211400-
CENTRAL ILLINOIS

CITY           SKY/WX    TMP DP  RH WIND       PRES   REMARKS
PONTIAC        CLOUDY    59  52  78 S13       30.08R
BLOOMINGTON    CLOUDY    57  50  77 S13       30.07S
DECATUR        CLOUDY    59  49  69 S12       30.09S
PEORIA         MOCLDY    61  52  72 S14       30.03R
LACON*         CLOUDY    61  51  69 S10G16    30.02R
LINCOLN*       CLOUDY    59  52  76 S7        30.05S
SPRINGFIELD    CLOUDY    62  52  69 S13       30.04S
TAYLORVILLE    CLOUDY    60  50  70 S12       30.07R
$$

ILZ033-039-045-046-055>057-062-063-211400-
EAST-CENTRAL ILLINOIS

CITY           SKY/WX    TMP DP  RH WIND       PRES   REMARKS
CHAMPAIGN      PTCLDY    53  48  83 SE9       30.12R
DANVILLE*      CLOUDY    54  47  78 SE6       30.11F
RANTOUL*       PTCLDY    55  50  83 SE8       30.11S
MATTOON        PTCLDY    56  49  77 SE12      30.12R
PARIS*         PTCLDY    52  49  90 SE8       30.16R
$$

ILZ079-100>102-211400-
SOUTHWEST ILLINOIS

CITY           SKY/WX    TMP DP  RH WIND       PRES   REMARKS
ALTON          CLOUDY    59  54  82 SE9       30.05F
BELLEVILLE     CLEAR     60  53  76 SE8       30.10S
CAHOKIA*       LGT RAIN  63  53  70 SE12      30.05S
SPARTA*        MOCLDY    61  53  74 SE5       30.11S
$$

ILZ064>066-069>071-074>076-080>082-084>086-088>090-092>094-211400-
SOUTH-CENTRAL ILLINOIS

CITY           SKY/WX    TMP DP  RH WIND       PRES   REMARKS
CARBONDALE     PTCLDY    60  52  74 S6        30.12R
CAIRO*         CLOUDY    61  50  68 S7        30.13S
EFFINGHAM*     PTCLDY    57  50  76 SE9       30.14S
MARION         MOCLDY    61  50  67 S7        30.14R
MT. VERNON     CLOUDY    57  49  74 CALM      30.13R
CENTRALIA*     CLOUDY    61  52  71 S10       30.11R
SALEM*         CLOUDY    59  49  69 SE5       30.12R
METROPOLIS*    CLOUDY    58  50  75 CALM      30.16R
$$

ILZ067-068-072-073-078-083-087-091-211400-
SOUTHEAST ILLINOIS

CITY           SKY/WX    TMP DP  RH WIND       PRES   REMARKS
LAWRENCEVILLE  PTCLDY    53  48  83 S7        30.18R
FLORA*         PTCLDY    54  50  86 SE3       30.15R
FAIRFIELD*     CLOUDY    57  49  75 CALM      30.14R
HARRISBURG*    CLOUDY    57  51  80 CALM      30.15R
ROBINSON*      PTCLDY    47  46  95 CALM      30.18R
CARMI*         CLOUDY    55  50  84 CALM      30.15S
$$

ABBREVIATIONS USED IN REMARKS
   TC - TEMPERATURE IN CELSIUS
  WCI - WIND CHILL INDEX
   HX - HEAT INDEX
  VSB - VISIBILITY
$$





USA.gov is the U.S. government's official web portal to all federal, state and local government web resources and services.